Regional Weather Roundup
Issued by NWS

Home | Current Version | Previous Version | Text Only | Print | Product List | Glossary On
Versions: 1 2 3 4 5 6 7 8 9 10 11 12 13 14 15 16 17 18 19 20 21 22 23 24 25 26 27 28 29 30 31 32 33 34 35 36 37 38 39 40 41 42 43 44 45 46 47 48 49 50
000
ASUS43 KFSD 191310
RWRSD

WEATHER ROUNDUP FOR SOUTH DAKOTA
NATIONAL WEATHER SERVICE SIOUX FALLS SD
700 AM CST SUN NOV 19 2017

NOTE: "FAIR" INDICATES FEW OR NO CLOUDS BELOW 12,000 FEET WITH NO
SIGNIFICANT WEATHER AND/OR OBSTRUCTIONS TO VISIBILITY.


SDZ001>005-009-010-012>017-191400-
NORTHWEST AND NORTH CENTRAL SOUTH DAKOTA

CITY           SKY/WX    TMP DP  RH WIND       PRES   REMARKS
BUFFALO          N/A     28  17  63 W9        29.88F WCI  19
FAITH            N/A     22  18  85 S13       29.97F WCI  10
MOBRIDGE       CLOUDY    23  18  81 SE7       29.96F WCI  15
$$

SDZ012>016-024>037-041>051-057-063-072>074-191400-
SOUTHWEST AND SOUTH CENTRAL SOUTH DAKOTA

CITY           SKY/WX    TMP DP  RH WIND       PRES   REMARKS
RAPID CTY ARPT CLOUDY    24  13  62 SE3       29.99F
PIERRE         CLEAR     26  21  81 W8        30.02F WCI  18
CUSTER         CLEAR     27  13  55 W9        29.99F WCI  18
ELLSWORTH AFB  CLOUDY    23  14  70 W7        29.98F WCI  14
PHILIP         CLEAR     23  20  88 W6        30.03F WCI  16
PINE RIDGE     CLEAR     21  16  81 CALM      30.05F
SPEARFISH      FAIR      39  12  33 W9G16     29.97F
WINNER         FAIR      29  19  66 SW9       30.06F WCI  20
$$

SDZ004>011-016>023-039-040-191400-
NORTHEAST SOUTH DAKOTA

CITY           SKY/WX    TMP DP  RH WIND       PRES   REMARKS
ABERDEEN       CLOUDY    18  17  96 S7        30.00F WCI   9
WATERTOWN      CLOUDY    22  19  89 SW7       30.01S WCI  13
BROOKINGS      CLOUDY    21  16  81 S5        30.05F WCI  15
SISSETON         N/A     28  21  75 N3        29.98S
$$

SDZ017-020-022-023-036>040-048>070-191400-
SOUTHEAST SOUTH DAKOTA

CITY           SKY/WX    TMP DP  RH WIND       PRES   REMARKS
SIOUX FALLS    CLOUDY    23  18  81 SW3       30.08F
HURON          CLOUDY    22  19  89 S5        30.05F WCI  16
CHAMBERLAIN    CLOUDY    24  22  93 CALM      30.06F
MITCHELL       PTCLDY    27  22  81 SW8       30.08F WCI  19
YANKTON        PTCLDY    20  18  92 CALM      30.11F
$$

ABBREVIATIONS USED IN REMARKS
   TC - TEMPERATURE IN CELSIUS
  WCI - WIND CHILL INDEX
   HX - HEAT INDEX
  VSB - VISIBILITY





USA.gov is the U.S. government's official web portal to all federal, state and local government web resources and services.